Juneau, WI

9:32 PM CST on December 14, 2019 (GMT -0600)
Dodge County

Weather History for KUNU - October, 2019

Change the Weather History Date:

Monday, October 7, 2019

  Actual Average Record
Temperature  
Mean Temperature 52 °F -  
Max Temperature 63 °F 62 °F 84 °F (2007)
Min Temperature 41 °F 43 °F 24 °F (1989)
Degree Days  
Heating Degree Days 13    
Growing Degree Days 2 (Base 50)    
Moisture  
Dew Point 41 °F    
Average Humidity 72    
Maximum Humidity 96    
Minimum Humidity 39    
Precipitation  
Precipitation 0.00 in - - ()
Sea Level Pressure  
Sea Level Pressure 30.15 in    
Wind  
Wind Speed 1 mph ()    
Max Wind Speed 8 mph    
Max Gust Speed -    
Visibility 10.0 miles    
Events      
Averages and records for this station are not official NWS values.
T = Trace of Precipitation, MM = Missing Value Source: Averaged Metar Reports

Daily Weather History Graph

Daily Weather History Graph

Search for Another Location

Airport or City:

Astronomy

Oct. 07, 2019 Rise Set
Actual Time 6:58 AM CDT 6:25 PM CDT
Civil Twilight 6:30 AM CDT 6:54 PM CDT
Nautical Twilight 5:57 AM CDT 7:27 PM CDT
Astronomical Twilight 5:23 AM CDT 8:00 PM CDT
Moon 3:59 PM CDT (10/7) 12:39 AM CDT (10/7)
Length of Visible Light 12h 23m
Length of Day
11h 26m
Waxing Gibbous, 69% of the Moon is Illuminated
Oct 7
Waxing Gibbous
Oct 13
Full
Oct 21
Last Quarter
Oct 27
New
Nov 4
First Quarter

Hourly Weather History & Observations

Time (CDT) Temp. Windchill Dew Point Humidity Pressure Visibility Wind Dir Wind Speed Gust Speed Precip Events Conditions
12:15 AM 46.6 °F - 42.3 °F 85% 30.09 in 10.0 mi Calm Calm - N/A   Clear
12:35 AM 46.6 °F - 42.1 °F 84% 30.09 in 10.0 mi Calm Calm - N/A   Clear
12:55 AM 45.7 °F 44.4 °F 41.5 °F 85% 30.09 in 10.0 mi SW 3.5 mph - N/A   Clear
1:15 AM 44.8 °F 43.3 °F 41.7 °F 89% 30.09 in 10.0 mi SW 3.5 mph - N/A   Clear
1:35 AM 44.1 °F - 41.2 °F 90% 30.09 in 10.0 mi Calm Calm - N/A   Clear
1:55 AM 43.7 °F - 41.2 °F 91% 30.09 in 10.0 mi Calm Calm - N/A   Clear
2:15 AM 43.9 °F - 41.4 °F 91% 30.09 in 10.0 mi Calm Calm - N/A   Clear
2:35 AM 43.5 °F - 41.0 °F 91% 30.09 in 10.0 mi Calm Calm - N/A   Clear
2:55 AM 43.5 °F - 41.4 °F 92% 30.09 in 10.0 mi Calm Calm - N/A   Clear
3:15 AM 42.8 °F - 41.0 °F 93% 30.09 in 10.0 mi Calm Calm - N/A   Clear
3:35 AM 41.5 °F - 40.3 °F 95% 30.10 in 10.0 mi Calm Calm - N/A   Clear
3:55 AM 42.4 °F - 41.2 °F 95% 30.10 in 10.0 mi Calm Calm - N/A   Scattered Clouds
4:15 AM 43.7 °F - 41.9 °F 93% 30.11 in 10.0 mi Calm Calm - N/A   Overcast
4:35 AM 44.1 °F - 42.3 °F 93% 30.11 in 10.0 mi Calm Calm - N/A   Mostly Cloudy
4:55 AM 43.9 °F - 41.9 °F 93% 30.11 in 10.0 mi Calm Calm - N/A   Mostly Cloudy
5:15 AM 44.6 °F - 42.1 °F 91% 30.11 in 10.0 mi Calm Calm - N/A   Overcast
5:35 AM 44.6 °F - 41.7 °F 90% 30.11 in 10.0 mi Calm Calm - N/A   Mostly Cloudy
5:55 AM 43.7 °F - 41.4 °F 91% 30.11 in 10.0 mi Calm Calm - N/A   Mostly Cloudy
6:35 AM 42.3 °F - 41.2 °F 96% 30.12 in 10.0 mi Calm Calm - N/A   Clear
6:55 AM 41.9 °F - 40.8 °F 96% 30.12 in 10.0 mi Calm Calm - N/A   Clear
7:15 AM 41.2 °F - 40.1 °F 96% 30.12 in 10.0 mi Calm Calm - N/A   Clear
7:35 AM 42.4 °F - 41.4 °F 96% 30.12 in 10.0 mi Calm Calm - N/A   Clear
7:55 AM 43.9 °F 42.3 °F 42.1 °F 93% 30.13 in 10.0 mi SW 3.5 mph - N/A   Clear
9:15 AM 51.1 °F - 43.7 °F 76% 30.16 in 10.0 mi WSW 4.6 mph - N/A   Clear
9:35 AM 52.7 °F - 43.5 °F 71% 30.16 in 10.0 mi WSW 6.9 mph - N/A   Clear
9:55 AM 54.5 °F - 43.7 °F 67% 30.16 in 10.0 mi WNW 4.6 mph - N/A   Clear
10:15 AM 55.4 °F - 44.1 °F 66% 30.17 in 10.0 mi West 3.5 mph - N/A   Clear
10:35 AM 56.3 °F - 43.7 °F 63% 30.17 in 10.0 mi West 5.8 mph - N/A   Clear
10:55 AM 57.2 °F - 44.8 °F 63% 30.17 in 10.0 mi WSW 4.6 mph - N/A   Clear
11:15 AM 58.3 °F - 44.8 °F 61% 30.17 in 10.0 mi West 4.6 mph - N/A   Clear
11:35 AM 59.5 °F - 45.7 °F 60% 30.17 in 10.0 mi West 3.5 mph - N/A   Clear
11:55 AM 60.1 °F - 44.1 °F 55% 30.17 in 10.0 mi Calm Calm - N/A   Clear
12:15 PM 60.8 °F - 43.3 °F 53% 30.17 in 10.0 mi West 4.6 mph - N/A   Clear
12:35 PM 61.3 °F - 41.2 °F 48% 30.16 in 10.0 mi NNW 8.1 mph - N/A   Clear
12:55 PM 61.5 °F - 40.6 °F 46% 30.16 in 10.0 mi Calm Calm - N/A   Clear
1:15 PM 62.6 °F - 38.3 °F 41% 30.16 in 10.0 mi NW 8.1 mph - N/A   Clear
1:35 PM 63.0 °F - 37.8 °F 39% 30.16 in 10.0 mi WNW 8.1 mph - N/A   Clear
2:15 PM 62.8 °F - 37.6 °F 39% 30.15 in 10.0 mi WNW 4.6 mph - N/A   Clear
2:35 PM 62.6 °F - 37.8 °F 40% 30.15 in 10.0 mi West 4.6 mph - N/A   Clear
2:55 PM 62.6 °F - 37.8 °F 40% 30.15 in 10.0 mi Calm Calm - N/A   Clear
3:15 PM 63.0 °F - 39.0 °F 41% 30.15 in 10.0 mi WNW 3.5 mph - N/A   Clear
3:35 PM 63.0 °F - 38.7 °F 41% 30.15 in 10.0 mi West 5.8 mph - N/A   Clear
3:55 PM 63.0 °F - 39.6 °F 42% 30.15 in 10.0 mi West 4.6 mph - N/A   Clear
4:15 PM 63.0 °F - 38.8 °F 41% 30.15 in 10.0 mi Calm Calm - N/A   Clear
4:35 PM 62.8 °F - 40.1 °F 43% 30.16 in 10.0 mi West 3.5 mph - N/A   Clear
4:55 PM 62.2 °F - 39.6 °F 43% 30.16 in 10.0 mi WSW 3.5 mph - N/A   Clear
5:15 PM 62.2 °F - 39.0 °F 42% 30.16 in 10.0 mi Calm Calm - N/A   Clear
5:35 PM 60.1 °F - 42.4 °F 52% 30.16 in 10.0 mi WSW 3.5 mph - N/A   Clear
5:55 PM 59.0 °F - 41.4 °F 52% 30.16 in 10.0 mi Calm Calm - N/A   Clear
6:15 PM 58.3 °F - 40.6 °F 52% 30.16 in 10.0 mi Calm Calm - N/A   Clear
6:35 PM 57.2 °F - 41.0 °F 55% 30.17 in 10.0 mi Calm Calm - N/A   Clear
6:55 PM - - - N/A% 30.17 in 10.0 mi Calm Calm - N/A   Clear
7:15 PM 54.5 °F - 41.5 °F 62% 30.17 in 10.0 mi Calm Calm - N/A   Clear
7:35 PM 54.3 °F - 40.3 °F 59% 30.17 in 10.0 mi Calm Calm - N/A   Clear
8:35 PM - - - N/A% 30.18 in 10.0 mi Calm Calm - N/A   Clear
8:55 PM 49.5 °F - 43.7 °F 81% 30.19 in 10.0 mi Calm Calm - N/A   Clear
9:35 PM 47.7 °F - 41.9 °F 80% 30.20 in 10.0 mi Calm Calm - N/A   Clear
9:55 PM 47.1 °F - 43.5 °F 87% 30.20 in 10.0 mi Calm Calm - N/A   Clear
10:35 PM 47.1 °F - 43.3 °F 87% 30.20 in 10.0 mi Calm Calm - N/A   Clear
10:55 PM 46.0 °F - 43.7 °F 92% 30.20 in 10.0 mi Calm Calm - N/A   Clear
11:15 PM 44.8 °F - 42.8 °F 93% 30.20 in 10.0 mi Calm Calm - N/A   Clear
11:35 PM 44.6 °F - 41.7 °F 90% 30.20 in 10.0 mi Calm Calm - N/A   Clear
11:55 PM 44.1 °F - 42.8 °F 95% 30.20 in 10.0 mi Calm Calm - N/A   Clear